Regional Weather Roundup
Issued by NWS Upton, NY

Current Version | Previous Version | Graphics & Text | Print | Product List | Glossary Off
Versions: 1 2 3 4 5 6 7 8 9 10 11 12 13 14 15 16 17 18 19 20 21 22 23 24 25 26 27 28 29 30 31 32 33 34 35 36 37 38 39 40 41 42 43 44 45 46 47 48 49 50
000 ASUS41 KOKX 060618 RWROKX REGIONAL WEATHER ROUNDUP NATIONAL WEATHER SERVICE NEW YORK NY 200 AM EDT MON JUL 06 2015 NOTE: "FAIR" INDICATES FEW OR NO CLOUDS BELOW 12,000 FEET WITH NO SIGNIFICANT WEATHER AND/OR OBSTRUCTIONS TO VISIBILITY. NYZ071-072-176-178-NJZ106-104-060700- NEW YORK CITY METRO AREA CITY SKY/WX TMP DP RH WIND PRES REMARKS CENTRAL PARK MOCLDY 74 65 73 W3 30.17S LAGUARDIA APRT MOCLDY 74 65 73 CALM 30.13F KENNEDY INTL MOCLDY 71 66 84 S3 30.15F NEWARK/LIBERTY MOCLDY 73 67 81 CALM 30.14F BRNX BOT. GARD N/A 68 64 88 CALM 30.15S TETERBORO MOCLDY 71 65 81 CALM 30.13F $$ NYZ177-179-078>081-060700- LONG ISLAND NEW YORK CITY SKY/WX TMP DP RH WIND PRES REMARKS FARMINGDALE MOCLDY 70 66 87 SW5 30.15F ISLIP PTCLDY 69 65 86 SW3 30.14S SHIRLEY PTCLDY 67 64 90 CALM 30.16S WESTHAMPTON PTCLDY 61 59 93 CALM 30.17S MONTAUK POINT N/A 67 63 87 CALM 30.17S $$ NYZ052-065-067-060700- HUDSON VALLEY CITY SKY/WX TMP DP RH WIND PRES REMARKS WHITE PLAINS MOCLDY 65 63 93 CALM 30.15F FOG NEWBURGH CLEAR 64 63 94 CALM 30.16F MONTGOMERY PTCLDY 60 60 100 CALM 30.15S FOG POUGHKEEPSIE CLEAR 63 60 90 CALM 30.14S ALBANY PTCLDY 63 56 78 CALM 30.14S $$ NJZ001-105-106-008-010-013-015-019>022-104-060700- NEW JERSEY CITY SKY/WX TMP DP RH WIND PRES REMARKS NEWARK/LIBERTY MOCLDY 73 67 81 CALM 30.14F TETERBORO MOCLDY 71 65 81 CALM 30.13F CALDWELL MOCLDY 67 62 84 CALM 30.15F MORRISTOWN MOCLDY 64 61 88 CALM 30.16R SOMERVILLE CLOUDY 65 62 90 CALM 30.13S SUSSEX PTCLDY 62 60 93 CALM 30.16F FOG ANDOVER N/A 63 62 97 CALM 30.17S TRENTON CLOUDY 71 67 87 S5 30.15S MILLVILLE CLOUDY 69 68 96 CALM 30.14S ATLANTIC CITY CLOUDY 70 67 90 CALM 30.15S WRIGHTSTOWN CLOUDY 68 67 99 CALM 30.13S TOMS RIVER CLOUDY 66 64 94 CALM 30.16S BELMAR CLOUDY 70 63 78 SW6 30.16S $$ PAZ047>061-062-071-060700- EASTERN PENNSYLVANIA CITY SKY/WX TMP DP RH WIND PRES REMARKS PHILADELPHIA CLOUDY 72 67 84 CALM 30.15S ALLENTOWN MOCLDY 65 63 93 CALM 30.15F SCRANTON MOCLDY 64 57 78 E3 30.17S $$ CTZ002-004>006-009-010-012-RIZ004-006-007-MAZ004-011-015-060700- SOUTHERN NEW ENGLAND IN CT CITY SKY/WX TMP DP RH WIND PRES REMARKS BRADLEY INTL MOCLDY 64 61 90 NW3 30.14S HARTFORD PTCLDY 67 64 90 CALM 30.14S DANBURY PTCLDY 62 58 86 CALM 30.17F FOG WTRBRY/OXFORD PTCLDY 64 59 82 CALM 30.18F BRIDGEPORT PTCLDY 69 64 84 CALM 30.14F MERIDEN CLEAR 65 61 87 CALM 30.15S FOG NEW HAVEN CLEAR 64 61 90 CALM 30.15S CHESTER FAIR 66 63 88 W6 30.16F GROTON CLEAR 66 63 90 CALM 30.14F WILLIMANTIC CLEAR 64 61 90 CALM 30.15F IN RI CITY SKY/WX TMP DP RH WIND PRES REMARKS PROVIDENCE CLEAR 68 63 84 W7 N/A BLOCK ISLAND CLEAR 64 61 88 W8 30.15F WESTERLY CLEAR 64 62 93 CALM 30.16S IN MA CITY SKY/WX TMP DP RH WIND PRES REMARKS BOSTON CLEAR 71 62 73 W6 30.13S WORCESTER CLEAR 63 58 83 W7 30.17S WESTFIELD CLEAR 62 59 90 CALM 30.15S PROVINCETOWN CLEAR 63 7 11 SW8 30.13S NANTUCKET CLEAR 67 63 87 W12 30.15S $$ ANZ330-335-338-340-345-350-353-355-060700- COASTAL MARINE OBSERVATIONS STATION/POSITION TIME SKY/WX TEMP WIND PRES VSBY WAVE AIR SEA DIR/SP/G HT/PER (UTC) (F) (DEG/KT/KT) (MB) (MI) (FT/S) NY HARB ENTRANCE 0550 72 71 210/ 8/ 8 1020.4 2/ 8 4S FIRE IS 0503 70 N/A 3/ 8 20S FIRE ISLAND 0550 70 70 220/ 6/ 6 1020.7 3/ 8 GREAT SOUTH BAY 0500 73 75 250/ 8/ 12 N/A 23SW MTP 0550 69 69 230/ 6/ 6 1021.0 3/ 7 HUDSON CANYON NOT AVBL KINGS POINT 0500 71 67 170/ 4/ 6 1020.2 CENTRAL LI SOUND NOT AVBL EASTERN LI SOUND 0500 66 64 220/ 4/ 4 N/A ROBBINS REEF 0500 72 180/ 4/ 5 1019.8 $$ >>>>>>>>>>>>>>>>>>>>>>>>>>>> KEY <<<<<<<<<<<<<<<<<<<<<<<<<<< > < > SKY/WX - SKY CONDITION/PRESENT WEATHER < > TMP - TEMPERATURE IN FAHRENHEIT < > DP - DEWPOINT IN FAHRENHEIT < > RH - RELATIVE HUMIDITY IN PERCENT < > WIND - DIRECTION AND SPEED IN MPH < > PRES - MEAN SEA LEVEL PRESSURE IN INCHES OF HG < > WCI - WIND CHILL INDEX < > VSB - VISIBILITY IN MILES < > HX - HEAT INDEX < > TC - TEMPERATURE IN CELSIUS < > VRB - VARIABLE WIND DIRECTION < > < >>>>>>>>>>>>>>>>>>>>>>>>>>>> KEY <<<<<<<<<<<<<<<<<<<<<<<<<<<

USA.gov is the U.S. government's official web portal to all federal, state and local government web resources and services.